FW9784 Weather Reports


Display with metric or nautical units.
time (UTC)temp
F
wind
direction
speed
MPH
gust
MPH
rain 1hr
in
rain 24hr
in
rain mn
in
humidity
%
barometer
mb
20260507145558 61 226 1.0 3.0 0.00 0.00 0.00 92 1016.2
20260507145052 61 252 1.0 4.0 0.00 0.00 0.00 93 1016.2
20260507144551 60 264 1.0 4.0 0.00 0.00 0.00 94 1016.3
20260507144048 60 265 2.0 4.0 0.00 0.00 0.00 94 1016.2
20260507143551 60 210 1.0 4.0 0.00 0.00 0.00 95 1016.2
20260507143045 59 226 0.0 2.0 0.00 0.00 0.00 95 1016.1
20260507142545 59 213 0.0 0.0 0.00 0.00 0.00 95 1016.1
20260507142044 59 281 0.0 0.0 0.00 0.00 0.00 95 1016.1
20260507141545 58 197 0.0 0.0 0.00 0.00 0.00 96 1016.0
20260507141049 58 197 0.0 0.0 0.00 0.00 0.00 96 1016.0
20260507140542 58 197 0.0 0.0 0.00 0.00 0.00 96 1015.9
20260507140041 58 197 0.0 0.0 0.00 0.00 0.00 96 1015.9
20260507135539 57 197 0.0 0.0 0.00 0.00 0.00 96 1015.7
20260507135036 57 197 0.0 0.0 0.00 0.00 0.00 96 1015.7
20260507134715 56 197 0.0 0.0 0.00 0.00 0.00 96 1015.7
20260507134637 57 197 0.0 0.0 0.00 0.00 0.00 96 1015.8
20260507134229 56 197 0.0 0.0 0.00 0.00 0.00 96 1015.8
20260507134003 56 197 0.0 0.0 0.00 0.00 0.00 96 1015.7
20260507133152 56 197 0.0 0.0 0.00 0.00 0.00 96 1015.6
20260507132026 55 197 0.0 0.0 0.00 0.00 0.00 95 1015.6
20260507131535 55 197 0.0 0.0 0.00 0.00 0.00 95 1015.5
20260507131026 55 197 0.0 0.0 0.00 0.00 0.00 95 1015.3
20260507130531 55 197 0.0 0.0 0.00 0.00 0.00 95 1015.2
20260507130030 55 197 0.0 0.0 0.00 0.00 0.00 95 1015.1
20260507125527 55 197 0.0 0.0 0.00 0.00 0.00 95 1015.2
20260507125038 55 197 0.0 0.0 0.00 0.00 0.00 95 1015.2
20260507124829 55 197 0.0 0.0 0.00 0.00 0.00 95 1015.2
20260507124032 55 197 0.0 0.0 0.00 0.00 0.00 95 1015.2
20260507123527 55 197 0.0 0.0 0.00 0.00 0.00 95 1015.2
20260507123031 55 197 0.0 0.0 0.00 0.00 0.00 95 1015.1
20260507122525 55 197 0.0 0.0 0.00 0.00 0.00 94 1015.0
20260507122315 55 197 0.0 0.0 0.00 0.00 0.00 95 1015.1
20260507121521 55 197 0.0 0.0 0.00 0.00 0.00 95 1015.2
20260507121025 55 197 0.0 0.0 0.00 0.00 0.00 95 1015.3
20260507120526 55 197 0.0 0.0 0.00 0.00 0.00 94 1015.3
20260507120022 55 197 0.0 0.0 0.00 0.00 0.00 95 1015.2
20260507115902 55 197 0.0 0.0 0.00 0.00 0.00 95 1015.2
20260507115022 55 197 0.0 0.0 0.00 0.00 0.00 95 1015.2
20260507114524 55 197 0.0 0.0 0.00 0.00 0.00 95 1015.2
20260507114025 55 197 0.0 0.0 0.00 0.00 0.00 95 1015.2
20260507113520 55 197 0.0 0.0 0.00 0.00 0.00 94 1015.2
20260507113323 55 197 0.0 0.0 0.00 0.00 0.00 94 1015.3
20260507112525 55 197 0.0 0.0 0.00 0.00 0.00 94 1015.3
20260507112020 55 197 0.0 0.0 0.00 0.00 0.00 94 1015.3
20260507111515 55 197 0.0 0.0 0.00 0.00 0.00 94 1015.3
20260507111342 56 197 0.0 0.0 0.00 0.00 0.00 94 1015.4
20260507110514 56 197 0.0 0.0 0.00 0.00 0.00 94 1015.3
20260507110405 56 197 0.0 0.0 0.00 0.00 0.00 94 1015.4
20260507105810 56 197 0.0 0.0 0.00 0.00 0.00 94 1015.5
20260507105014 56 197 0.0 0.0 0.00 0.00 0.00 94 1015.6
20260507104513 56 197 0.0 0.0 0.00 0.00 0.00 94 1015.5
20260507104016 56 197 0.0 0.0 0.00 0.00 0.00 94 1015.7
20260507103511 56 197 0.0 0.0 0.00 0.00 0.00 94 1015.7
20260507103013 56 197 0.0 0.0 0.00 0.00 0.00 93 1015.7
20260507102832 56 197 0.0 0.0 0.00 0.00 0.00 94 1015.7
20260507102011 56 197 0.0 0.0 0.00 0.00 0.00 94 1015.8
20260507101920 56 197 0.0 0.0 0.00 0.00 0.00 94 1015.8
20260507101012 56 197 0.0 0.0 0.00 0.00 0.00 93 1015.8
20260507100512 56 197 0.0 0.0 0.00 0.00 0.00 93 1015.7
20260507100351 56 197 0.0 0.0 0.00 0.00 0.00 93 1015.7
20260507095502 56 197 0.0 0.0 0.00 0.00 0.00 93 1015.8
20260507095002 57 197 0.0 0.0 0.00 0.00 0.00 93 1015.8
20260507094503 56 197 0.0 0.0 0.00 0.00 0.00 94 1015.9
20260507094307 56 197 0.0 0.0 0.00 0.00 0.00 93 1016.0
20260507093502 56 197 0.0 0.0 0.00 0.00 0.00 93 1016.0
20260507093001 56 197 0.0 0.0 0.00 0.00 0.00 93 1016.1
20260507092502 56 197 0.0 0.0 0.00 0.00 0.00 93 1016.1
20260507092007 56 197 0.0 0.0 0.00 0.00 0.00 93 1016.2
20260507091501 57 197 0.0 0.0 0.00 0.00 0.00 93 1016.1
20260507091318 56 197 0.0 0.0 0.00 0.00 0.00 93 1016.2
20260507090501 57 197 0.0 0.0 0.00 0.00 0.00 93 1016.2
20260507085958 57 197 0.0 0.0 0.00 0.00 0.00 93 1016.3
20260507085453 57 197 0.0 0.0 0.00 0.00 0.00 93 1016.3
20260507084952 57 197 0.0 0.0 0.00 0.00 0.00 92 1016.3
20260507084451 57 197 0.0 0.0 0.00 0.00 0.00 93 1016.4
20260507083950 57 197 0.0 0.0 0.00 0.00 0.00 93 1016.4
20260507083449 57 197 0.0 0.0 0.00 0.00 0.00 93 1016.4
20260507083259 57 197 0.0 0.0 0.00 0.00 0.00 92 1016.5
20260507082444 57 197 0.0 0.0 0.00 0.00 0.00 92 1016.5
20260507081942 58 197 0.0 0.0 0.00 0.00 0.00 92 1016.6
20260507081442 58 197 0.0 0.0 0.00 0.00 0.00 92 1016.6
20260507081256 58 197 0.0 0.0 0.00 0.00 0.00 92 1016.6
20260507080432 58 197 0.0 0.0 0.00 0.00 0.00 92 1016.6
20260507075932 58 197 0.0 0.0 0.00 0.00 0.00 92 1016.6
20260507075429 58 197 0.0 0.0 0.00 0.00 0.00 92 1016.6
20260507074935 58 197 0.0 0.0 0.00 0.00 0.00 92 1016.6
20260507074429 58 197 0.0 0.0 0.00 0.00 0.00 92 1016.7
20260507074234 58 197 0.0 0.0 0.00 0.00 0.00 92 1016.7
20260507073430 58 197 0.0 0.0 0.00 0.00 0.00 92 1016.7
20260507072925 58 197 0.0 0.0 0.00 0.00 0.00 92 1016.7
20260507072758 58 197 0.0 0.0 0.00 0.00 0.00 92 1016.7
20260507071928 59 197 0.0 0.0 0.00 0.00 0.00 92 1016.7
20260507071423 59 197 0.0 0.0 0.00 0.00 0.00 92 1016.8
20260507071326 59 197 0.0 0.0 0.00 0.00 0.00 92 1016.8
20260507070420 59 197 0.0 0.0 0.00 0.00 0.00 91 1016.8
20260507070311 59 197 0.0 0.0 0.00 0.00 0.00 91 1016.9
20260507065728 59 197 0.0 0.0 0.00 0.00 0.00 92 1016.7
20260507064915 59 197 0.0 0.0 0.00 0.00 0.00 91 1016.9
20260507064414 59 197 0.0 2.0 0.00 0.00 0.00 91 1016.9
20260507063913 59 197 0.0 2.0 0.00 0.00 0.00 91 1016.9
20260507063411 59 197 0.0 2.0 0.00 0.00 0.00 91 1016.8
20260507062910 59 197 0.0 0.0 0.00 0.00 0.00 91 1016.9
20260507062411 59 197 0.0 0.0 0.00 0.00 0.00 91 1016.9
20260507062201 59 197 1.0 4.0 0.00 0.00 0.00 91 1016.8
20260507062047 59 197 1.0 4.0 0.00 0.00 0.00 91 1016.9
20260507060906 59 197 1.0 4.0 0.00 0.00 0.00 91 1016.9
20260507060405 59 234 1.0 3.0 0.00 0.00 0.00 91 1016.9
20260507055906 59 212 1.0 3.0 0.00 0.00 0.00 91 1016.9
20260507055405 59 0 1.0 5.0 0.00 0.00 0.00 91 1016.9
20260507054903 59 259 2.0 5.0 0.00 0.00 0.00 91 1016.9
20260507054721 59 215 2.0 4.0 0.00 0.00 0.00 91 1016.9
20260507053900 59 236 1.0 4.0 0.00 0.00 0.00 91 1016.9
20260507053359 59 0 1.0 3.0 0.00 0.00 0.00 91 1016.9
20260507053246 59 213 1.0 3.0 0.00 0.00 0.00 91 1016.9
20260507052400 59 213 1.0 3.0 0.00 0.00 0.00 91 1016.9
20260507051856 59 215 1.0 4.0 0.00 0.00 0.00 91 1016.9
20260507051400 59 223 1.0 4.0 0.00 0.00 0.00 91 1016.9
20260507050856 59 205 1.0 4.0 0.00 0.00 0.00 91 1016.9
20260507050355 59 216 1.0 5.0 0.00 0.00 0.00 91 1016.9
20260507045852 59 263 2.0 5.0 0.00 0.00 0.00 91 1016.8
20260507045353 59 247 1.0 4.0 0.00 0.00 0.00 91 1016.9
20260507044853 60 280 1.0 4.0 0.00 0.00 0.00 91 1016.8
20260507044351 60 211 1.0 4.0 0.00 0.00 0.00 91 1016.8
20260507043850 60 279 2.0 4.0 0.00 0.00 0.00 90 1016.8
20260507043734 60 213 2.0 7.0 0.00 0.00 0.00 90 1016.7
20260507042839 60 249 2.0 7.0 0.00 0.00 0.00 90 1016.7
20260507042330 60 207 2.0 5.0 0.00 0.00 0.00 90 1016.7
20260507041826 60 0 2.0 7.0 0.00 0.00 0.00 90 1016.7
20260507041327 60 189 2.0 7.0 0.00 0.00 0.00 90 1016.7
20260507040830 60 223 3.0 7.0 0.00 0.00 0.00 90 1016.7
20260507040742 60 221 2.0 6.0 0.00 0.00 0.00 90 1016.7
20260507035828 60 232 2.0 9.0 0.00 0.00 0.00 90 1016.6
20260507035327 60 0 3.0 9.0 0.00 0.00 0.00 90 1016.6
20260507034827 60 216 3.0 8.0 0.00 0.00 0.00 90 1016.5
20260507034625 60 261 3.0 8.0 0.00 0.00 0.00 90 1016.4
20260507033829 60 206 3.0 8.0 0.00 0.00 0.00 89 1016.4
20260507033328 60 213 3.0 8.0 0.00 0.00 0.00 89 1016.3
20260507032826 60 226 3.0 7.0 0.00 0.00 0.00 89 1016.2
20260507032327 60 263 4.0 9.0 0.00 0.00 0.00 89 1016.2
20260507031827 60 234 4.0 12.0 0.00 0.00 0.00 89 1016.1
20260507031331 60 237 2.0 12.0 0.00 0.00 0.00 88 1016.2
20260507030828 61 248 2.0 8.0 0.00 0.00 0.00 88 1016.1
20260507030329 61 251 4.0 8.0 0.00 0.00 0.00 88 1016.2
20260507025828 61 253 4.0 8.0 0.00 0.00 0.00 87 1016.0
20260507025327 61 257 5.0 12.0 0.00 0.00 0.00 86 1015.9
20260507024830 62 261 4.0 12.0 0.00 0.00 0.00 85 1015.9
20260507024606 62 254 2.0 8.0 0.00 0.00 0.00 84 1015.9
20260507024222 62 208 3.0 9.0 0.00 0.00 0.00 84 1015.8
20260507023326 62 198 3.0 9.0 0.00 0.00 0.00 84 1015.7
20260507022831 62 241 3.0 7.0 0.00 0.00 0.00 83 1015.7
20260507022328 62 0 4.0 14.0 0.00 0.00 0.00 83 1015.7
20260507021826 62 224 4.0 14.0 0.00 0.00 0.00 83 1015.7
20260507021328 63 213 4.0 11.0 0.00 0.00 0.00 83 1015.6
20260507020828 63 246 4.0 11.0 0.00 0.00 0.00 81 1015.5
20260507020659 63 0 4.0 10.0 0.00 0.00 0.00 81 1015.4
20260507015817 63 248 4.0 10.0 0.00 0.00 0.00 80 1015.3
20260507015311 64 0 4.0 10.0 0.00 0.00 0.00 79 1015.3
20260507014812 64 275 4.0 9.0 0.00 0.00 0.00 79 1015.3
20260507014636 64 185 4.0 9.0 0.00 0.00 0.00 79 1015.4
20260507013807 64 219 4.0 10.0 0.00 0.00 0.00 78 1015.4
20260507013309 64 200 4.0 10.0 0.00 0.00 0.00 78 1015.4
20260507012808 64 0 5.0 11.0 0.00 0.00 0.00 78 1015.4
20260507012306 65 225 5.0 11.0 0.00 0.00 0.00 79 1015.5
20260507012119 65 280 4.0 13.0 0.00 0.00 0.00 78 1015.4
20260507011306 65 230 5.0 13.0 0.00 0.00 0.00 78 1015.3
20260507010802 65 197 5.0 11.0 0.00 0.00 0.00 78 1015.3
20260507010302 66 267 4.0 11.0 0.00 0.00 0.00 78 1015.3
20260507010113 66 253 5.0 10.0 0.00 0.00 0.00 78 1015.4
20260507005306 66 201 5.0 12.0 0.00 0.00 0.00 76 1015.3
20260507004809 66 264 6.0 12.0 0.00 0.00 0.00 77 1015.3
20260507004303 66 257 6.0 13.0 0.00 0.00 0.00 77 1015.3
20260507004148 67 0 5.0 13.0 0.00 0.00 0.00 76 1015.2
20260507003305 67 223 5.0 11.0 0.00 0.00 0.00 76 1015.3
20260507002807 67 219 4.0 11.0 0.00 0.00 0.00 76 1015.3
20260507002301 67 258 5.0 10.0 0.00 0.00 0.00 76 1015.3
20260507001805 67 0 6.0 13.0 0.00 0.00 0.00 77 1015.4
20260507001302 67 232 6.0 13.0 0.00 0.00 0.00 77 1015.5
20260507000802 67 214 5.0 12.0 0.00 0.00 0.00 77 1015.4
20260507000300 67 0 5.0 12.0 0.00 0.00 0.00 77 1015.3
20260506235759 67 250 6.0 10.0 0.00 0.00 0.00 76 1015.3
20260506235306 68 0 5.0 12.0 0.00 0.00 0.00 75 1015.3
20260506234802 67 0 5.0 12.0 0.00 0.00 0.00 76 1015.3
20260506234258 67 226 5.0 12.0 0.00 0.00 0.00 74 1015.3
20260506233802 68 0 5.0 12.0 0.00 0.00 0.00 76 1015.3
20260506233635 68 265 5.0 11.0 0.00 0.00 0.00 75 1015.3
20260506232800 68 197 5.0 11.0 0.00 0.00 0.00 75 1015.4
20260506232257 68 217 5.0 10.0 0.00 0.00 0.00 75 1015.4
20260506231753 68 213 5.0 12.0 0.00 0.00 0.00 74 1015.5
20260506231254 68 0 5.0 12.0 0.00 0.00 0.00 73 1015.5
20260506230758 69 0 5.0 16.0 0.00 0.00 0.00 73 1015.5
20260506230258 68 0 5.0 16.0 0.00 0.00 0.00 74 1015.5
20260506225759 69 0 5.0 14.0 0.00 0.00 0.00 72 1015.6
20260506225254 68 0 5.0 14.0 0.00 0.00 0.00 73 1015.6
20260506224755 68 0 6.0 13.0 0.00 0.00 0.00 74 1015.7
20260506224636 68 0 6.0 13.0 0.00 0.00 0.00 73 1015.7
20260506223746 68 0 5.0 12.0 0.00 0.00 0.00 72 1015.8
20260506223609 69 0 5.0 12.0 0.00 0.00 0.00 72 1015.9
20260506222744 69 0 5.0 10.0 0.00 0.00 0.00 73 1015.9
20260506222241 69 0 5.0 10.0 0.00 0.00 0.00 73 1016.0
20260506221747 69 240 5.0 11.0 0.00 0.00 0.00 70 1016.0
20260506221243 69 248 5.0 11.0 0.00 0.00 0.00 71 1015.9
20260506220744 69 155 5.0 12.0 0.00 0.00 0.00 70 1016.1
20260506220416 69 196 5.0 14.0 0.00 0.00 0.00 71 1016.2
20260506220342 69 278 5.0 12.0 0.00 0.00 0.00 71 1016.3
20260506215607 69 205 4.0 14.0 0.00 0.00 0.00 71 1016.4
20260506214740 69 0 5.0 12.0 0.00 0.00 0.00 71 1016.5
20260506214237 69 0 5.0 12.0 0.00 0.00 0.00 72 1016.7
20260506213738 69 200 5.0 12.0 0.00 0.00 0.00 72 1016.7
20260506213237 69 0 5.0 12.0 0.00 0.00 0.00 71 1016.7
20260506212739 69 0 5.0 11.0 0.00 0.00 0.00 73 1016.7
20260506212234 69 0 5.0 12.0 0.00 0.00 0.00 72 1016.6
20260506211737 69 0 5.0 12.0 0.00 0.00 0.00 71 1016.8
20260506211236 69 0 5.0 11.0 0.00 0.00 0.00 72 1016.7
20260506210734 69 223 5.0 11.0 0.00 0.00 0.00 73 1016.8
20260506210230 69 176 5.0 11.0 0.00 0.00 0.00 72 1017.0
20260506205729 68 241 5.0 11.0 0.00 0.00 0.00 73 1016.8
20260506205230 68 236 5.0 11.0 0.00 0.00 0.00 72 1016.9
20260506204732 69 0 5.0 11.0 0.00 0.00 0.00 73 1016.9
20260506204228 69 0 5.0 11.0 0.00 0.00 0.00 72 1017.0
20260506203729 69 0 5.0 13.0 0.00 0.00 0.00 73 1017.0
20260506203229 68 263 5.0 13.0 0.00 0.00 0.00 72 1017.0
20260506202731 69 194 4.0 12.0 0.00 0.00 0.00 71 1017.0
20260506202229 69 0 4.0 10.0 0.00 0.00 0.00 71 1017.1
20260506201731 69 232 5.0 11.0 0.00 0.00 0.00 73 1017.2
20260506201230 69 195 5.0 11.0 0.00 0.00 0.00 72 1017.3
20260506200734 69 0 4.0 9.0 0.00 0.00 0.00 72 1017.3
20260506200524 69 0 4.0 10.0 0.00 0.00 0.00 73 1017.3
20260506195730 68 214 5.0 12.0 0.00 0.00 0.00 73 1017.4
20260506195627 68 206 5.0 12.0 0.00 0.00 0.00 73 1017.4
20260506194725 68 0 5.0 11.0 0.00 0.00 0.00 74 1017.5
20260506194216 67 192 5.0 12.0 0.00 0.00 0.00 74 1017.6
20260506193717 67 217 5.0 12.0 0.00 0.00 0.00 73 1017.6
20260506193547 67 223 5.0 11.0 0.00 0.00 0.00 74 1017.5
20260506192717 67 209 5.0 14.0 0.00 0.00 0.00 73 1017.7
20260506192217 68 221 5.0 14.0 0.00 0.00 0.00 73 1017.7
20260506191715 68 252 5.0 10.0 0.00 0.00 0.00 72 1017.7
20260506191215 68 0 4.0 10.0 0.00 0.00 0.00 72 1017.8
20260506190716 68 296 5.0 12.0 0.00 0.00 0.00 73 1017.8
20260506190215 68 220 5.0 12.0 0.00 0.00 0.00 72 1017.8
20260506185713 68 217 4.0 8.0 0.00 0.00 0.00 73 1017.8
20260506185213 68 215 4.0 11.0 0.00 0.00 0.00 72 1017.8
20260506184713 67 219 5.0 11.0 0.00 0.00 0.00 73 1017.8
20260506184218 67 271 5.0 10.0 0.00 0.00 0.00 72 1017.8
20260506183714 67 207 4.0 10.0 0.00 0.00 0.00 72 1017.8
20260506183209 68 0 4.0 10.0 0.00 0.00 0.00 71 1017.8
20260506182709 68 180 5.0 12.0 0.00 0.00 0.00 71 1017.8
20260506182206 68 246 5.0 12.0 0.00 0.00 0.00 70 1017.9
20260506181703 68 208 4.0 8.0 0.00 0.00 0.00 71 1017.9
20260506181207 68 252 4.0 8.0 0.00 0.00 0.00 70 1017.9
20260506180703 68 250 4.0 10.0 0.00 0.00 0.00 70 1018.0
20260506180652 68 197 4.0 9.0 0.00 0.00 0.00 69 1018.0
20260506180646 68 223 5.0 10.0 0.00 0.00 0.00 71 1017.9
20260506180636 68 220 5.0 9.0 0.00 0.00 0.00 70 1018.0
20260506174703 68 207 3.0 9.0 0.00 0.00 0.00 70 1018.0
20260506174204 68 0 3.0 7.0 0.00 0.00 0.00 70 1018.0
20260506174111 68 237 3.0 8.0 0.00 0.00 0.00 69 1017.9
20260506173221 68 215 3.0 8.0 0.00 0.00 0.00 70 1017.8
20260506172715 69 256 2.0 6.0 0.00 0.00 0.00 70 1017.9
20260506172156 69 245 2.0 6.0 0.00 0.00 0.00 67 1017.8
20260506171653 69 160 2.0 6.0 0.00 0.00 0.00 67 1017.8
20260506171150 69 125 2.0 7.0 0.00 0.00 0.00 68 1017.8
20260506171038 69 100 2.0 7.0 0.00 0.00 0.00 68 1017.8
20260506170147 68 182 1.0 6.0 0.00 0.00 0.00 70 1017.8
20260506165655 67 123 1.0 3.0 0.00 0.00 0.00 71 1017.8
20260506165202 67 0 2.0 7.0 0.00 0.00 0.00 70 1017.8
20260506164657 67 118 2.0 7.0 0.00 0.00 0.00 70 1017.8
20260506164532 67 69 2.0 5.0 0.00 0.00 0.00 71 1017.8
20260506164052 67 50 2.0 5.0 0.00 0.00 0.00 73 1017.8
20260506163154 66 193 2.0 6.0 0.00 0.00 0.00 73 1017.8
20260506162650 66 166 2.0 6.0 0.00 0.00 0.00 73 1017.8
20260506162146 66 82 1.0 4.0 0.00 0.00 0.00 74 1017.9
20260506161643 65 53 1.0 4.0 0.00 0.00 0.00 75 1017.9
20260506161146 65 64 1.0 4.0 0.00 0.00 0.00 75 1017.8
20260506161036 65 200 1.0 5.0 0.00 0.00 0.00 76 1018.0
20260506160145 64 175 2.0 5.0 0.00 0.00 0.00 77 1017.9
20260506155834 64 66 2.0 6.0 0.00 0.00 0.00 78 1018.1
20260506155755 64 188 2.0 5.0 0.00 0.00 0.00 77 1017.9
20260506154641 64 168 2.0 6.0 0.00 0.00 0.00 78 1017.9
20260506154143 63 86 2.0 6.0 0.00 0.00 0.00 78 1017.9
20260506154053 63 141 2.0 7.0 0.00 0.00 0.00 79 1017.9
20260506153143 63 113 3.0 7.0 0.00 0.00 0.00 80 1017.9
20260506152640 63 168 2.0 5.0 0.00 0.00 0.00 80 1017.9
20260506152139 62 82 2.0 6.0 0.00 0.00 0.00 81 1017.9
20260506151639 62 187 2.0 6.0 0.00 0.00 0.00 81 1018.0
20260506151513 62 77 1.0 4.0 0.00 0.00 0.00 82 1018.0
20260506150639 61 109 2.0 4.0 0.00 0.00 0.00 82 1017.9